カタログに戻る

COSMOS 2506

運用中ナビゲーションSSO
NORAD 40699·PAYLOAD·🇷🇺 Russia

打ち上げ Jun 23, 2015 から Plesetsk Cosmodrome

Loading…

次のパス (今後24時間)

TLE

最新Source: Space-Track

元期: Sep 14, 2026, 22:49 UTC

1 40699U 15029A   26257.95097159  .00000141  00000-0  43288-4 0  9997
2 40699  98.0390 295.3478 0006048 231.3933 128.6723 14.54410522595937

AllMySatでCOSMOS 2506をリアルタイム追跡

Download on the App Store